Regional Weather Roundup
Issued by NWS

Home | Current Version | Previous Version | Text Only | Print | Product List | Glossary Off
Versions: 1 2 3 4 5 6 7 8 9 10 11 12 13 14 15 16 17 18 19 20 21 22 23 24 25 26 27 28 29 30 31 32 33 34 35 36 37 38 39 40 41 42 43 44 45 46 47 48 49 50

000
ASUS43 KLMK 170010
RWRKY
KENTUCKY REGIONAL WEATHER ROUNDUP
NATIONAL WEATHER SERVICE LOUISVILLE KY
800 PM EDT WED AUG 16 2017

NOTE "FAIR" INDICATES FEW OR NO CLOUDS BELOW 12,000 FEET
WITH NO SIGNIFICANT WEATHER AND/OR OBSTRUCTIONS TO VISIBILITY.

KYZ001>023-026-027-061>063-070>075-170100-
WESTERN AND SOUTH CENTRAL KENTUCKY

CITY           SKY/WX    TMP DP  RH WIND       PRES   REMARKS
PADUCAH        CLOUDY    85  73  67 W8        29.95R HX  91
HENDERSON      MOCLDY    79  74  84 E3        29.96R
OWENSBORO      CLOUDY    83  74  74 SE8       29.96R
HOPKINSVILLE   CLEAR     87  74  66 SW8       29.97R HX  96
BOWLING GREEN  CLOUDY    82  76  81 CALM      29.98F
GLASGOW        LGT RAIN  79  76  89 CALM      29.99S
$$

KYZ024-025-028>034-038-045-046-053-170100-
NORTH CENTRAL KENTUCKY

CITY           SKY/WX    TMP DP  RH WIND       PRES   REMARKS
LOUISVILLE/SDF CLOUDY    87  72  60 S12       29.96R HX  93
LOUISVILLE/LOU CLOUDY    87  72  60 S8        29.97R HX  93
FORT KNOX      MOCLDY    80  72  77 S6        29.97S
$$

KYZ035>037-039>044-047>052-055>060-089>105-170100-
NORTHEAST KENTUCKY

CITY           SKY/WX    TMP DP  RH WIND       PRES   REMARKS
LEXINGTON      PTCLDY    84  71  65 SW3       30.00R
COVINGTON      MOCLDY    83  74  74 S6        29.98R
FRANKFORT      PTCLDY    84  70  62 SW5       29.98R
$$

KYZ054-064>069-076>088-106>120-170100-
SOUTHEAST KENTUCKY

CITY           SKY/WX    TMP DP  RH WIND       PRES   REMARKS
JACKSON        CLEAR     77  72  84 CALM      30.04R
LONDON         CLEAR     83  71  67 W5        30.03R
SOMERSET       PTCLDY    81  70  69 W6        30.02S
MIDDLESBORO    PTCLDY    80  74  82 CALM      30.04R
MONTICELLO     CLEAR     80  77  90 NW3       30.03R
$$




USA.gov is the U.S. government's official web portal to all federal, state and local government web resources and services.